Change the Weather History Date:

Friday, March 8, 2013

  Actual Average Record
Temperature  
Mean Temperature 55 °F -  
Max Temperature 60 °F 55 °F 80 °F (2002)
Min Temperature 50 °F 32 °F 15 °F (2008)
Degree Days  
Heating Degree Days 10    
Growing Degree Days 5 (Base 50)    
Moisture  
Dew Point 50 °F    
Average Humidity 82    
Maximum Humidity 94    
Minimum Humidity 61    
Precipitation  
Precipitation 0.00 in - - ()
Sea Level Pressure  
Sea Level Pressure 29.94 in    
Wind  
Wind Speed 21 mph (SSE)    
Max Wind Speed 26 mph    
Max Gust Speed 37 mph    
Visibility 10 miles    
Events Rain    
Averages and records for this station are not official NWS values.
T = Trace of Precipitation, MM = Missing Value Source: NWS Daily Summary

Daily Weather History Graph

Daily Weather History Graph

Search for Another Location

Airport or City:

Trip Planner

Search our weather history database for the weather conditions in past years. The results will help you decide how hot, cold, wet, or windy it might be!

Date:

Astronomy

Mar. 08, 2013 Rise Set
Actual Time 6:56 AM CST 6:38 PM CST
Civil Twilight 6:31 AM CST 7:04 PM CST
Nautical Twilight 6:02 AM CST 7:33 PM CST
Astronomical Twilight 5:32 AM CST 8:03 PM CST
Moon 4:36 AM CST (3/8) 3:40 PM CST (3/8)
Length of Visible Light 12h 32m
Length of Day
11h 41m
Waning Crescent, 11% of the Moon is Illuminated
Mar 8
Waning Crescent
Mar 11
New
Mar 19
First Quarter
Mar 27
Full
Apr 2
Last Quarter

Hourly Weather History & Observations

Time (CST) Temp. Dew Point Humidity Pressure Visibility Wind Dir Wind Speed Gust Speed Precip Events Conditions
12:53 AM 52.0 °F 39.0 °F 61% 29.99 in 10.0 mi South 17.3 mph - N/A   Clear
1:53 AM 52.0 °F 39.9 °F 63% 30.00 in 10.0 mi South 23.0 mph - N/A   Clear
2:53 AM 52.0 °F 41.0 °F 66% 29.98 in 10.0 mi South 19.6 mph - N/A   Clear
3:53 AM 51.1 °F 41.0 °F 68% 29.96 in 10.0 mi South 19.6 mph - N/A   Clear
4:53 AM 50.0 °F 42.1 °F 74% 29.96 in 10.0 mi SSE 15.0 mph - N/A   Clear
5:53 AM 51.1 °F 44.1 °F 77% 29.99 in 10.0 mi SSE 17.3 mph - N/A   Clear
6:53 AM 51.1 °F 45.0 °F 80% 29.99 in 10.0 mi SSE 19.6 mph - N/A   Clear
7:53 AM 51.1 °F 46.0 °F 83% 30.00 in 10.0 mi South 19.6 mph - N/A   Clear
8:53 AM 52.0 °F 46.9 °F 83% 30.02 in 10.0 mi South 20.7 mph - N/A   Scattered Clouds
9:53 AM 54.0 °F 48.9 °F 83% 30.02 in 10.0 mi South 20.7 mph 32.2 mph N/A   Partly Cloudy
10:29 AM 53.6 °F 48.2 °F 82% 30.04 in 10.0 mi South 26.5 mph 34.5 mph N/A   Mostly Cloudy
10:53 AM 55.0 °F 50.0 °F 83% 30.01 in 10.0 mi South 25.3 mph 29.9 mph N/A   Overcast
11:22 AM 55.4 °F 51.8 °F 88% 30.02 in 10.0 mi SSE 25.3 mph 29.9 mph 0.00 in Rain Light Rain
11:53 AM 55.0 °F 51.1 °F 86% 30.01 in 10.0 mi SSE 21.9 mph - 0.00 in   Overcast
12:53 PM 57.9 °F 52.0 °F 81% 29.98 in 10.0 mi South 24.2 mph 28.8 mph N/A   Overcast
1:49 PM 57.2 °F 51.8 °F 82% 29.97 in 10.0 mi SSE 24.2 mph 31.1 mph N/A   Overcast
1:53 PM 57.9 °F 52.0 °F 81% 29.95 in 10.0 mi SSE 24.2 mph - N/A   Overcast
2:41 PM 57.2 °F 53.6 °F 88% 29.95 in 9.0 mi SSE 25.3 mph 33.4 mph N/A   Overcast
2:53 PM 57.9 °F 53.1 °F 84% 29.93 in 10.0 mi SSE 25.3 mph 31.1 mph N/A   Overcast
3:28 PM 59.0 °F 53.6 °F 82% 29.93 in 10.0 mi SSE 26.5 mph 32.2 mph N/A   Overcast
3:53 PM 60.1 °F 54.0 °F 80% 29.89 in 10.0 mi SSE 25.3 mph 32.2 mph N/A   Overcast
4:53 PM 60.1 °F 54.0 °F 80% 29.89 in 10.0 mi SSE 24.2 mph 29.9 mph N/A   Overcast
5:53 PM 60.1 °F 54.0 °F 80% 29.89 in 10.0 mi SSE 23.0 mph 28.8 mph N/A   Overcast
6:13 PM 59.0 °F 53.6 °F 82% 29.91 in 10.0 mi SSE 25.3 mph 33.4 mph N/A   Overcast
6:53 PM 59.0 °F 54.0 °F 83% 29.89 in 10.0 mi SSE 19.6 mph - N/A   Overcast
7:22 PM 59.0 °F 53.6 °F 82% 29.90 in 10.0 mi SSE 20.7 mph 28.8 mph N/A   Overcast
7:53 PM 57.9 °F 54.0 °F 87% 29.88 in 10.0 mi SSE 23.0 mph 31.1 mph N/A   Overcast
8:50 PM 57.2 °F 55.4 °F 94% 29.88 in 10.0 mi SSE 21.9 mph 34.5 mph N/A   Overcast
8:53 PM 57.9 °F 55.0 °F 90% 29.86 in 10.0 mi SSE 25.3 mph 34.5 mph N/A   Overcast
9:53 PM 57.9 °F 55.0 °F 90% 29.84 in 8.0 mi SSE 24.2 mph 34.5 mph N/A   Overcast
10:53 PM 59.0 °F 55.0 °F 87% 29.86 in 10.0 mi South 26.5 mph 36.8 mph N/A   Overcast
11:14 PM 57.2 °F 55.4 °F 94% 29.90 in 9.0 mi South 20.7 mph 32.2 mph N/A   Overcast
11:53 PM 57.9 °F 55.9 °F 93% 29.86 in 7.0 mi South 23.0 mph 27.6 mph 0.00 in Rain Light Rain